Springfield, OH

3:27 AM EDT on October 17, 2017 (GMT -0400)
Springfield-Beckley Municipal

Weather History for KSGH - October, 2012

Change the Weather History Date:

Monday, October 22, 2012

  Actual Average (KFFO) Record (KFFO)
Temperature  
Mean Temperature 60 °F -  
Max Temperature 77 °F 60 °F 81 °F (2015)
Min Temperature 43 °F 40 °F 26 °F (1997)
Degree Days  
Heating Degree Days 5    
Growing Degree Days 10 (Base 50)    
Moisture  
Dew Point 46 °F    
Average Humidity 64    
Maximum Humidity 86    
Minimum Humidity 39    
Precipitation  
Precipitation 0.00 in - - ()
Sea Level Pressure  
Sea Level Pressure 30.11 in    
Wind  
Wind Speed 6 mph (South)    
Max Wind Speed 13 mph    
Max Gust Speed -    
Visibility 7 miles    
Events      
Averages and records for this station are not official NWS values.
T = Trace of Precipitation, MM = Missing Value Source: NWS Daily Summary

Daily Weather History Graph

Daily Weather History Graph

Search for Another Location

Airport or City:

Trip Planner

Search our weather history database for the weather conditions in past years. The results will help you decide how hot, cold, wet, or windy it might be!

Date:

Astronomy

Oct. 22, 2012 Rise Set
Actual Time 7:53 AM EDT 6:45 PM EDT
Civil Twilight 7:26 AM EDT 7:12 PM EDT
Nautical Twilight 6:54 AM EDT 7:44 PM EDT
Astronomical Twilight 6:23 AM EDT 8:15 PM EDT
Moon 2:52 PM EDT (10/22) 12:40 AM EDT (10/22)
Length of Visible Light 11h 46m
Length of Day
10h 51m
First Quarter, 56% of the Moon is Illuminated
Oct 22
First Quarter
Oct 29
Full
Nov 6
Last Quarter
Nov 13
New
Nov 20
First Quarter

Hourly Weather History & Observations

Time (EDT) Temp. Windchill Dew Point Humidity Pressure Visibility Wind Dir Wind Speed Gust Speed Precip Events Conditions
12:56 AM 43.0 °F 41.3 °F 38.8 °F 85% 30.13 in 6.0 mi ESE 3.5 mph - N/A   Clear
1:56 AM 43.0 °F 39.5 °F 38.8 °F 85% 30.13 in 6.0 mi ESE 5.8 mph - N/A   Clear
2:56 AM 43.9 °F 41.3 °F 39.9 °F 86% 30.12 in 7.0 mi SE 4.6 mph - N/A   Clear
3:56 AM 45.0 °F 42.6 °F 39.9 °F 82% 30.12 in 7.0 mi SE 4.6 mph - N/A   Clear
4:56 AM 46.9 °F - 41.0 °F 80% 30.12 in 7.0 mi SE 5.8 mph - N/A   Mostly Cloudy
5:56 AM 46.9 °F - 41.0 °F 80% 30.13 in 7.0 mi SSE 4.6 mph - N/A   Clear
6:56 AM 46.9 °F - 41.0 °F 80% 30.14 in 7.0 mi SE 4.6 mph - N/A   Clear
7:56 AM 45.0 °F 42.6 °F 41.0 °F 86% 30.15 in 7.0 mi SSE 4.6 mph - N/A   Scattered Clouds
8:56 AM 48.9 °F - 43.9 °F 83% 30.15 in 6.0 mi SE 4.6 mph - N/A   Haze
9:56 AM 54.9 °F - 45.9 °F 72% 30.16 in 6.0 mi South 4.6 mph - N/A   Haze
10:56 AM 59.9 °F - 47.8 °F 64% 30.15 in 6.0 mi SW 6.9 mph - N/A   Haze
11:56 AM 64.9 °F - 48.9 °F 56% 30.14 in 6.0 mi SSW 9.2 mph - N/A   Haze
12:56 PM 70.0 °F - 48.9 °F 47% 30.12 in 6.0 mi SSW 9.2 mph - N/A   Haze
1:56 PM 73.9 °F - 50.0 °F 43% 30.10 in 7.0 mi SW 10.4 mph - N/A   Clear
2:56 PM 77.0 °F - 50.0 °F 39% 30.08 in 6.0 mi SW 12.7 mph - N/A   Haze
3:56 PM 73.9 °F - 48.9 °F 41% 30.09 in 6.0 mi SW 10.4 mph - N/A   Haze
4:56 PM 72.9 °F - 50.0 °F 44% 30.09 in 6.0 mi SW 10.4 mph - N/A   Haze
5:56 PM 70.9 °F - 50.9 °F 49% 30.09 in 6.0 mi SW 8.1 mph - N/A   Haze
6:56 PM 68.9 °F - 50.0 °F 51% 30.07 in 7.0 mi South 8.1 mph - N/A   Partly Cloudy
7:56 PM 68.0 °F - 50.0 °F 52% 30.07 in 8.0 mi SSW 4.6 mph - N/A   Clear
8:56 PM 66.9 °F - 50.0 °F 54% 30.06 in 8.0 mi South 4.6 mph - N/A   Clear
9:56 PM 64.9 °F - 50.0 °F 58% 30.06 in 8.0 mi South 6.9 mph - N/A   Clear
10:56 PM 63.9 °F - 50.0 °F 61% 30.06 in 7.0 mi South 5.8 mph - N/A   Mostly Cloudy
11:56 PM 63.0 °F - 50.0 °F 63% 30.07 in 8.0 mi SSW 4.6 mph - N/A   Mostly Cloudy